[[{"header":{"parameterUnit":"m.s-1","parameterCategory":1,"la1":30.2991,"la2":30.254,"lo1":-89.0895,"lo2":-89.0444,"dy":0.0017,"dx":0.0017,"nx":28,"ny":28,"refTime":"2024-02-06T03:00:00:Z","depth":0,"parameterNumber":2,"parameterNumberName":"U-component_of_WINDS"},"data":[0,0,0,0,0,0,0,0,0,0,0,0,0,0,0,0,0,0,0,0,0,0,0,0,0,0,0,0,0,0,0,0,0,0,0,0,0,0,0,0,0,0,0,0,0,0,0,0,0,0,0,0,0,0,0,0,0,0,0.5513,0.5513,0,0.5485,0.5485,0.5485,0.5485,0.5485,0.5486,0.5486,0.5454,0.5453,0.5452,0,0,0,0,0,0,0,0,0,0,0,0,0,0.5565,0.5564,0.5513,0.5513,0.5513,0.5485,0.5485,0.5485,0.5485,0.5485,0.5486,0.5486,0.5455,0.5453,0.5452,0,0,0,0,0,0,0,0,0,0,0,0,0,0.554,0.5563,0.5513,0.551,0.5509,0.5486,0.5485,0.5485,0.5485,0.5485,0.5486,0.5486,0.5455,0.5453,0.5452,0.5429,0,0,0.5446,0.5445,0,0,0,0,0,0,0,0,0.5541,0.5538,0.5511,0.551,0.5509,0.5489,0.5491,0.5466,0.5485,0.5494,0.5486,0.5487,0.5465,0.5463,0.5456,0.5428,0.5426,0.5446,0.5445,0.5444,0.5444,0,0,0,0,0,0,0,0.5543,0.5539,0.5502,0.551,0.5509,0.5509,0.5506,0.5487,0.5477,0.5493,0.5493,0.549,0.5465,0.5458,0.5455,0.5426,0.5446,0.5444,0.5443,0.5443,0.5378,0.5377,0,0,0,0,0,0,0.5546,0.5541,0.5503,0.5501,0.5527,0.5507,0.5504,0.5495,0.5477,0.5475,0.549,0.549,0.5461,0.5457,0.5454,0.5426,0.5444,0.5442,0.5441,0.5378,0.5377,0.5377,0,0,0,0,0,0,0.5547,0.5543,0.5504,0.5521,0.5516,0.5506,0.5496,0.5494,0.5487,0.5474,0.5472,0.5484,0.5461,0.5457,0.5436,0.5425,0.5442,0.544,0.5379,0.5378,0.5377,0.5371,0,0,0,0,0,0,0.5549,0.5543,0.5535,0.5521,0.5515,0.5487,0.5495,0.5493,0.5484,0.5485,0.5469,0.5466,0.5461,0.5438,0.5434,0.5423,0.5439,0.538,0.5379,0.5377,0.5372,0.537,0.5368,0,0,0,0,0,0.555,0.5534,0.5534,0.553,0.5505,0.5486,0.5483,0.5478,0.5484,0.5475,0.5467,0.5467,0.5428,0.5436,0.5431,0.542,0.538,0.5379,0.5377,0.5373,0.537,0.5368,0,0,0,0,0,0,0.5545,0.5532,0.5532,0.5511,0.55,0.5486,0.5475,0.5475,0.5462,0.5462,0.5456,0.5452,0.5431,0.5424,0.5433,0.5397,0.5405,0.5402,0.5403,0.54,0.5398,0.54,0.5437,0,0,0,0,0,0.5542,0.5529,0.5517,0.5499,0.5494,0.5485,0.5477,0.5474,0.5462,0.5457,0.5447,0.5435,0.542,0.541,0.5395,0.5371,0.5367,0.5361,0.5359,0.5358,0.5355,0.5342,0.5339,0.5372,0.5372,0.5372,0,0,0.5534,0.5525,0.5517,0.5498,0.5489,0.5475,0.5481,0.5466,0.5455,0.5454,0.5434,0.5427,0.5412,0.539,0.5379,0.5383,0.5345,0.5356,0.5355,0.5353,0.534,0.5337,0.5334,0.5371,0.5371,0.5371,0,0,0.5512,0.5505,0.5489,0.548,0.5467,0.5462,0.5458,0.5445,0.544,0.542,0.542,0.5406,0.538,0.537,0.5362,0.5337,0.5337,0.5333,0.5322,0.5309,0.5306,0.5304,0.5295,0.5292,0.5331,0.5331,0.5331,0,0.5504,0.5483,0.548,0.5465,0.5456,0.5457,0.544,0.5432,0.5414,0.5408,0.5412,0.538,0.5371,0.5346,0.534,0.5333,0.5328,0.5334,0.5307,0.5305,0.5303,0.5294,0.529,0.533,0.533,0.533,0.533,0,0.5473,0.5459,0.5447,0.5432,0.5422,0.5406,0.54,0.539,0.5389,0.5383,0.5362,0.5351,0.5334,0.5329,0.5326,0.5303,0.5306,0.5309,0.5316,0.5299,0.529,0.5287,0.5329,0.533,0.533,0.533,0,0,0.5446,0.543,0.5426,0.5419,0.5405,0.5393,0.5378,0.5362,0.5354,0.5342,0.5328,0.5307,0.531,0.53,0.5297,0.5286,0.5267,0.529,0.529,0.5286,0.524,0.5237,0.5233,0.5267,0.5266,0.5266,0.5241,0,0.5422,0.5395,0.5392,0.5367,0.5353,0.5355,0.5341,0.5331,0.5325,0.5312,0.5306,0.529,0.5296,0.529,0.5279,0.5271,0.5257,0.5273,0.5253,0.5252,0.5255,0.5229,0.5225,0.5202,0.5238,0.5237,0.5237,0,0.539,0.5379,0.5353,0.5342,0.5336,0.5323,0.5309,0.5297,0.5286,0.5283,0.5272,0.5271,0.5254,0.5263,0.5239,0.525,0.5242,0.5237,0.5236,0.5232,0.5242,0.5224,0.5194,0.519,0.5231,0.5232,0.5232,0,0.5372,0.535,0.5332,0.5326,0.5313,0.5304,0.5298,0.5287,0.5278,0.5265,0.5259,0.5245,0.5237,0.5225,0.522,0.5227,0.5196,0.5204,0.5191,0.5192,0.5184,0.5184,0.5151,0.518,0.518,0.518,0.518,0,0.5345,0.5329,0.5324,0.5312,0.5294,0.5291,0.5273,0.5267,0.5258,0.5245,0.5245,0.5232,0.5227,0.5213,0.5209,0.5189,0.5186,0.5182,0.518,0.5181,0.5181,0.5174,0.5175,0.5179,0.518,0.518,0.518,0,0.5321,0.5317,0.5297,0.5286,0.5283,0.527,0.5261,0.525,0.5245,0.5228,0.5224,0.5217,0.5201,0.5195,0.5175,0.5172,0.5149,0.515,0.5153,0.5153,0.514,0.5141,0.5101,0.5095,0.5129,0.5129,0.5128,0,0.5303,0.5291,0.528,0.5272,0.5265,0.5252,0.5244,0.524,0.5231,0.5218,0.5208,0.5193,0.518,0.5154,0.5146,0.5131,0.5131,0.5118,0.5128,0.5129,0.513,0.513,0.5128,0.5116,0.5115,0.5115,0.5115,0,0.5272,0.5271,0.5259,0.5247,0.5236,0.5226,0.5216,0.5209,0.5205,0.5194,0.5179,0.5169,0.515,0.5134,0.5119,0.5112,0.5112,0.5112,0.5108,0.5108,0.511,0.5107,0.5147,0.5112,0.5113,0.5113,0.5113,0.5113,0.525,0.5239,0.523,0.5216,0.5209,0.52,0.5189,0.5183,0.5171,0.5155,0.5154,0.5138,0.5127,0.5106,0.5099,0.5085,0.5088,0.5083,0.5081,0.5079,0.5078,0.5113,0.5082,0.5082,0.5082,0.5082,0.5083,0,0.5218,0.5213,0.5201,0.5187,0.5176,0.518,0.5169,0.5159,0.5145,0.5135,0.5123,0.5106,0.5091,0.5082,0.5067,0.5058,0.5057,0.5054,0.5054,0.5052,0.5076,0.5081,0.5054,0.5054,0.5054,0.5054,0.5054,0.5054,0.52,0.5182,0.518,0.5158,0.5152,0.5137,0.513,0.5122,0.5114,0.5094,0.5083,0.5078,0.5068,0.5053,0.5039,0.5037,0.5031,0.5027,0.5025,0.5047,0.505,0.5053,0.5057,0.5026,0.5026,0.5001,0.5001,0.5001]},{"header":{"parameterUnit":"m.s-1","parameterCategory":1,"la1":30.2991,"la2":30.254,"lo1":-89.0895,"lo2":-89.0444,"dy":0.0017,"dx":0.0017,"nx":28,"ny":28,"refTime":"2024-02-06T03:00:00:Z","depth":0,"parameterNumber":3,"parameterNumberName":"V-component_of_WINDS"},"data":[0,0,0,0,0,0,0,0,0,0,0,0,0,0,0,0,0,0,0,0,0,0,0,0,0,0,0,0,0,0,0,0,0,0,0,0,0,0,0,0,0,0,0,0,0,0,0,0,0,0,0,0,0,0,0,0,0,0,-4.2044,-4.2046,0,-4.2182,-4.2183,-4.2185,-4.214,-4.2137,-4.2134,-4.2132,-4.2276,-4.2283,-4.2289,0,0,0,0,0,0,0,0,0,0,0,0,0,-4.1748,-4.1754,-4.2044,-4.2046,-4.2047,-4.2181,-4.2183,-4.2185,-4.2141,-4.2137,-4.2134,-4.213,-4.2274,-4.2282,-4.229,0,0,0,0,0,0,0,0,0,0,0,0,0,-4.188,-4.1755,-4.2044,-4.2041,-4.2042,-4.2181,-4.2183,-4.2186,-4.2142,-4.2137,-4.2133,-4.2128,-4.2272,-4.2281,-4.2291,-4.2441,0,0,-4.2321,-4.2326,0,0,0,0,0,0,0,0,-4.1873,-4.1891,-4.204,-4.2042,-4.2043,-4.2139,-4.2132,-4.2272,-4.2143,-4.2104,-4.2131,-4.2126,-4.2235,-4.2247,-4.2283,-4.2448,-4.2454,-4.2322,-4.2328,-4.2332,-4.2335,0,0,0,0,0,0,0,-4.1864,-4.1885,-4.2098,-4.2042,-4.2044,-4.2035,-4.2049,-4.2158,-4.2193,-4.2107,-4.2104,-4.2121,-4.2235,-4.2273,-4.2286,-4.2456,-4.2322,-4.2331,-4.2337,-4.2341,-4.2756,-4.276,0,0,0,0,0,0,-4.1853,-4.1878,-4.2094,-4.2103,-4.1945,-4.2044,-4.206,-4.2113,-4.2191,-4.2199,-4.2125,-4.2118,-4.2259,-4.2274,-4.2291,-4.2475,-4.2332,-4.2342,-4.2347,-4.2751,-4.2757,-4.2762,0,0,0,0,0,0,-4.1847,-4.1873,-4.2089,-4.1989,-4.2016,-4.2054,-4.2114,-4.2118,-4.2157,-4.2204,-4.2211,-4.2158,-4.2256,-4.2277,-4.2405,-4.2479,-4.2346,-4.2355,-4.2745,-4.2752,-4.2759,-4.2842,0,0,0,0,0,0,-4.1838,-4.1871,-4.1927,-4.1991,-4.2022,-4.2199,-4.2119,-4.2124,-4.2174,-4.2167,-4.2237,-4.2245,-4.2254,-4.239,-4.2415,-4.249,-4.2363,-4.2738,-4.2748,-4.2757,-4.2833,-4.2851,-4.2867,0,0,0,0,0,-4.1828,-4.1944,-4.193,-4.1956,-4.2092,-4.2203,-4.2221,-4.2228,-4.2179,-4.2238,-4.2269,-4.2242,-4.2466,-4.2404,-4.2431,-4.251,-4.2734,-4.2745,-4.2756,-4.2825,-4.2848,-4.2867,0,0,0,0,0,0,-4.1888,-4.1953,-4.1937,-4.2077,-4.2135,-4.2195,-4.2268,-4.2251,-4.2325,-4.2315,-4.2322,-4.2339,-4.2471,-4.2503,-4.2432,-4.2662,-4.2593,-4.2611,-4.2636,-4.2658,-4.2675,-4.2665,-4.2371,0,0,0,0,0,-4.1918,-4.2001,-4.2053,-4.2172,-4.2202,-4.223,-4.2279,-4.2279,-4.234,-4.2364,-4.2404,-4.2466,-4.255,-4.2605,-4.2685,-4.2837,-4.2853,-4.2905,-4.2922,-4.2936,-4.2952,-4.3038,-4.3062,-4.28,-4.28,-4.2799,0,0,-4.198,-4.2026,-4.2078,-4.2186,-4.223,-4.2318,-4.2251,-4.2346,-4.2412,-4.2379,-4.2503,-4.2535,-4.2603,-4.2744,-4.2808,-4.2776,-4.3028,-4.2951,-4.2962,-4.297,-4.3052,-4.3077,-4.3099,-4.2807,-4.2806,-4.2805,0,0,-4.2139,-4.218,-4.2285,-4.2332,-4.24,-4.2419,-4.2444,-4.2508,-4.2528,-4.2651,-4.2629,-4.2709,-4.2853,-4.2904,-4.2949,-4.3129,-4.3109,-4.3155,-4.3246,-4.333,-4.3351,-4.3369,-4.3437,-4.346,-4.317,-4.3171,-4.3171,0,-4.2208,-4.2338,-4.2342,-4.244,-4.249,-4.2463,-4.2571,-4.2616,-4.2708,-4.2744,-4.2705,-4.2888,-4.2932,-4.3086,-4.313,-4.3166,-4.3198,-4.3148,-4.3347,-4.3366,-4.3383,-4.3447,-4.3472,-4.3176,-4.3175,-4.3175,-4.3174,0,-4.2421,-4.2512,-4.2589,-4.2678,-4.2736,-4.2839,-4.286,-4.2919,-4.2915,-4.2938,-4.3067,-4.3119,-4.3211,-4.3247,-4.3244,-4.3402,-4.338,-4.3344,-4.3276,-4.3413,-4.3474,-4.3499,-4.3183,-4.3182,-4.318,-4.3179,0,0,-4.2622,-4.2713,-4.2741,-4.2783,-4.2857,-4.2929,-4.3031,-4.312,-4.3172,-4.3236,-4.3324,-4.3448,-4.3416,-4.3467,-4.347,-4.3543,-4.3687,-4.3499,-4.3501,-4.3535,-4.3868,-4.3897,-4.3925,-4.3674,-4.3678,-4.3682,-4.3864,0,-4.2789,-4.2968,-4.2975,-4.314,-4.3226,-4.3202,-4.3292,-4.3349,-4.3374,-4.3452,-4.348,-4.3569,-4.3519,-4.355,-4.3621,-4.3654,-4.3755,-4.3641,-4.3759,-4.3763,-4.3744,-4.3956,-4.3986,-4.4155,-4.3887,-4.3891,-4.3894,0,-4.3007,-4.3079,-4.3252,-4.3317,-4.3353,-4.3433,-4.3517,-4.3591,-4.3656,-4.3669,-4.3727,-4.372,-4.3828,-4.3755,-4.3905,-4.3828,-4.3877,-4.3901,-4.3908,-4.3921,-4.3838,-4.3978,-4.4208,-4.4235,-4.3931,-4.3928,-4.3925,0,-4.314,-4.3279,-4.3401,-4.3437,-4.3515,-4.3573,-4.3608,-4.3669,-4.3723,-4.3796,-4.3832,-4.3917,-4.3965,-4.4033,-4.405,-4.3994,-4.4202,-4.4129,-4.4218,-4.4218,-4.4265,-4.4262,-4.4509,-4.4292,-4.4291,-4.4291,-4.429,0,-4.3327,-4.3434,-4.3462,-4.3538,-4.3659,-4.3667,-4.3787,-4.3818,-4.3873,-4.3956,-4.3941,-4.402,-4.4037,-4.412,-4.4134,-4.4258,-4.4279,-4.4295,-4.4298,-4.4298,-4.4297,-4.4332,-4.4321,-4.4298,-4.4296,-4.4295,-4.4294,0,-4.3496,-4.3518,-4.3651,-4.3714,-4.3733,-4.3819,-4.3874,-4.3948,-4.3971,-4.4077,-4.4103,-4.414,-4.4237,-4.4261,-4.4376,-4.4386,-4.4535,-4.4525,-4.4513,-4.4513,-4.4602,-4.4595,-4.4883,-4.4922,-4.4677,-4.4679,-4.4681,0,-4.3615,-4.3697,-4.3769,-4.3823,-4.3862,-4.3949,-4.4004,-4.4016,-4.4075,-4.4157,-4.4222,-4.4316,-4.4393,-4.455,-4.4589,-4.4679,-4.4673,-4.4768,-4.4686,-4.4685,-4.4678,-4.4674,-4.4684,-4.4784,-4.4786,-4.4788,-4.479,0,-4.3824,-4.3832,-4.3911,-4.3996,-4.4062,-4.413,-4.4194,-4.424,-4.4261,-4.4329,-4.4427,-4.4487,-4.4606,-4.4702,-4.4792,-4.483,-4.4816,-4.4815,-4.4841,-4.4843,-4.4834,-4.4843,-4.4558,-4.4809,-4.4807,-4.4806,-4.4805,-4.4804,-4.3974,-4.4047,-4.411,-4.42,-4.425,-4.4311,-4.4384,-4.4417,-4.45,-4.4597,-4.4599,-4.4708,-4.4774,-4.4893,-4.4938,-4.5024,-4.4996,-4.5032,-4.5042,-4.5052,-4.5062,-4.4818,-4.504,-4.504,-4.5039,-4.5039,-4.5039,0,-4.4185,-4.4225,-4.4308,-4.4399,-4.447,-4.4448,-4.4519,-4.4581,-4.4677,-4.4739,-4.4815,-4.493,-4.5024,-4.5071,-4.5164,-4.5225,-4.5221,-4.5249,-4.5247,-4.5257,-4.508,-4.505,-4.5251,-4.5251,-4.5251,-4.5251,-4.5251,-4.5251,-4.4304,-4.4428,-4.4443,-4.4593,-4.4632,-4.4738,-4.4781,-4.4838,-4.4888,-4.5017,-4.5095,-4.5124,-4.5181,-4.5279,-4.5365,-4.5377,-4.5413,-4.5446,-4.5455,-4.529,-4.5268,-4.5248,-4.5219,-4.5453,-4.5454,-4.5624,-4.5626,-4.5627]}]]